Weather History for Newark, NJ

Change the Weather History Date:

Monday, August 12, 2013

  Actual Average Record
Temperature  
Mean Temperature 77 °F 76 °F  
Max Temperature 83 °F 85 °F 98 °F (1944)
Min Temperature 70 °F 68 °F 54 °F (1954)
Degree Days  
Heating Degree Days 0 0  
Month to date heating degree days 0 0  
Since 1 June heating degree days 8 17  
Since 1 July heating degree days 0 0  
Cooling Degree Days 12 11  
Month to date cooling degree days 120 143  
Year to date cooling degree days 984 841  
Since 1 June cooling degree days 884 765  
Growing Degree Days 26 (Base 50)    
Moisture  
Dew Point 67 °F    
Average Humidity 69    
Maximum Humidity 90    
Minimum Humidity 47    
Precipitation  
Precipitation 0.51 in 0.12 in 3.44 in (1955)
Month to date precipitation 1.94 1.66  
Year to date precipitation 30.67 29.33  
Snow  
Snow 0.00 in 0.00 in 0.00 in (2002)
Month to date snowfall 0.0 0.0  
Since 1 July snowfall 0.0 0.0  
Snow Depth 0.00 in    
Sea Level Pressure  
Sea Level Pressure 29.99 in    
Wind  
Wind Speed 4 mph (SSW)    
Max Wind Speed 12 mph    
Max Gust Speed 14 mph    
Visibility 9 miles    
Events Rain    
T = Trace of Precipitation, MM = Missing Value Source: NWS Daily Summary

Daily Weather History Graph

Daily Weather History Graph

Search for Another Location

Airport:

Trip Planner

Search our weather history database for the weather conditions in past years. The results will help you decide how hot, cold, wet, or windy it might be!

Date:

Astronomy

Aug. 12, 2013 Rise Set
Actual Time 6:04 AM EDT 7:58 PM EDT
Civil Twilight 5:34 AM EDT 8:27 PM EDT
Nautical Twilight 4:58 AM EDT 9:03 PM EDT
Astronomical Twilight 4:19 AM EDT 9:42 PM EDT
Moon 11:54 AM EDT (8/12) 10:47 PM EDT (8/12)
Length of Visible Light 14h 53m
Length of Day
13h 54m
Waxing Crescent, 31% of the Moon is Illuminated
Aug 12
Waxing Crescent
Aug 14
First Quarter
Aug 20
Full
Aug 28
Last Quarter
Sep 5
New

Hourly Weather History & Observations

Time (EDT) Temp. Heat Index Dew Point Humidity Pressure Visibility Wind Dir Wind Speed Gust Speed Precip Events Conditions
12:51 AM 73.0 °F - 66.9 °F 81% 30.04 in 10.0 mi South 4.6 mph - N/A   Mostly Cloudy
1:51 AM 72.0 °F - 68.0 °F 87% 30.03 in 10.0 mi South 3.5 mph - 0.00 in   Mostly Cloudy
2:51 AM 72.0 °F - 68.0 °F 87% 30.02 in 10.0 mi Calm Calm - N/A   Mostly Cloudy
3:51 AM 71.1 °F - 66.9 °F 87% 30.01 in 10.0 mi SW 3.5 mph - N/A   Mostly Cloudy
4:51 AM 72.0 °F - 68.0 °F 87% 30.00 in 10.0 mi Calm Calm - N/A   Overcast
5:51 AM 72.0 °F - 66.9 °F 84% 30.01 in 10.0 mi WSW 3.5 mph - N/A   Overcast
6:37 AM 71.6 °F - 68.0 °F 88% 30.02 in 1.5 mi WNW 5.8 mph - 0.07 in Rain Heavy Rain
6:44 AM 69.8 °F - 68.0 °F 94% 30.02 in 1.5 mi NW 4.6 mph - 0.18 in Rain Heavy Rain
6:51 AM 70.0 °F - 68.0 °F 93% 30.02 in 1.2 mi West 10.4 mph - 0.36 in Rain Heavy Rain
7:08 AM 69.8 °F - 68.0 °F 94% 30.03 in 5.0 mi West 6.9 mph - 0.13 in Rain Rain
7:19 AM 69.8 °F - 68.0 °F 94% 30.03 in 7.0 mi NNW 6.9 mph - 0.14 in Rain Light Rain
7:51 AM 71.1 °F - 66.9 °F 87% 30.02 in 10.0 mi NNE 5.8 mph - 0.15 in   Mostly Cloudy
8:51 AM 73.0 °F - 64.9 °F 76% 30.02 in 10.0 mi Calm Calm - N/A   Overcast
9:51 AM 73.9 °F - 64.9 °F 73% 30.03 in 10.0 mi North 3.5 mph - 0.00 in Rain Light Rain
10:51 AM 75.0 °F - 64.9 °F 71% 30.02 in 10.0 mi NNE 6.9 mph - 0.00 in   Overcast
11:51 AM 75.9 °F - 66.0 °F 71% 30.01 in 10.0 mi Variable 3.5 mph - N/A   Overcast
12:51 PM 78.1 °F - 64.0 °F 62% 30.00 in 10.0 mi Calm Calm - N/A   Overcast
1:51 PM 79.0 °F - 60.1 °F 52% 29.99 in 10.0 mi Variable 3.5 mph - N/A   Mostly Cloudy
2:51 PM 81.0 °F 81.9 °F 62.1 °F 52% 29.98 in 10.0 mi Calm Calm - N/A   Mostly Cloudy
3:51 PM 82.0 °F 82.7 °F 61.0 °F 49% 29.96 in 10.0 mi SSE 3.5 mph - N/A   Mostly Cloudy
4:51 PM 80.1 °F 82.3 °F 66.9 °F 64% 29.95 in 10.0 mi South 6.9 mph - N/A   Scattered Clouds
5:51 PM 80.1 °F 82.1 °F 66.0 °F 62% 29.95 in 10.0 mi SSE 6.9 mph - N/A   Scattered Clouds
6:51 PM 79.0 °F - 66.9 °F 66% 29.94 in 10.0 mi SSE 4.6 mph - N/A   Scattered Clouds
7:51 PM 78.1 °F - 66.9 °F 68% 29.93 in 10.0 mi SSE 4.6 mph - N/A   Mostly Cloudy
8:51 PM 75.9 °F - 70.0 °F 82% 29.93 in 10.0 mi SSE 4.6 mph - N/A   Mostly Cloudy
9:51 PM 75.0 °F - 70.0 °F 84% 29.94 in 10.0 mi South 3.5 mph - N/A   Mostly Cloudy
10:51 PM 75.0 °F - 69.1 °F 82% 29.94 in 10.0 mi South 3.5 mph - N/A   Mostly Cloudy
11:51 PM 73.0 °F - 69.1 °F 87% 29.94 in 10.0 mi SSW 4.6 mph - N/A   Mostly Cloudy